[[{"header":{"parameterUnit":"m.s-1","parameterCategory":1,"la1":30.2991,"la2":30.254,"lo1":-89.0895,"lo2":-89.0444,"dy":0.0017,"dx":0.0017,"nx":28,"ny":28,"refTime":"2025-12-19T09:00:00:Z","depth":0,"parameterNumber":2,"parameterNumberName":"U-component_of_WINDS"},"data":[0,0,0,0,0,0,0,0,0,0,0,0,0,0,0,0,0,0,0,0,0,0,0,0,0,0,0,0,0,0,0,0,0,0,0,0,0,0,0,0,0,0,0,0,0,0,0,0,0,0,0,0,0,0,0,0,0,0,-2.7841,-2.7842,0,-2.7897,-2.7897,-2.7898,-2.792,-2.792,-2.7919,-2.7919,-2.7974,-2.7975,-2.7977,0,0,0,0,0,0,0,0,0,0,0,0,0,-2.7752,-2.7753,-2.7841,-2.7842,-2.7843,-2.7897,-2.7897,-2.7898,-2.792,-2.792,-2.7919,-2.7919,-2.7973,-2.7975,-2.7977,0,0,0,0,0,0,0,0,0,0,0,0,0,-2.7797,-2.7754,-2.7841,-2.786,-2.7862,-2.7897,-2.7898,-2.7898,-2.792,-2.792,-2.7919,-2.7919,-2.7973,-2.7975,-2.7977,-2.7996,0,0,-2.7985,-2.7986,0,0,0,0,0,0,0,0,-2.7794,-2.78,-2.7856,-2.7859,-2.7861,-2.7901,-2.7886,-2.7931,-2.792,-2.7898,-2.7919,-2.7919,-2.795,-2.7954,-2.7965,-2.7999,-2.8001,-2.7985,-2.7986,-2.7987,-2.7988,0,0,0,0,0,0,0,-2.7791,-2.7798,-2.7863,-2.7857,-2.786,-2.7865,-2.7871,-2.7895,-2.7924,-2.79,-2.7901,-2.7908,-2.7951,-2.7962,-2.7966,-2.8002,-2.7985,-2.7987,-2.7988,-2.7989,-2.8055,-2.8055,0,0,0,0,0,0,-2.7785,-2.7795,-2.7861,-2.7865,-2.7827,-2.7867,-2.7874,-2.7889,-2.7924,-2.7929,-2.7908,-2.7909,-2.7959,-2.7963,-2.7968,-2.7993,-2.7987,-2.799,-2.7991,-2.8055,-2.8055,-2.8055,0,0,0,0,0,0,-2.7783,-2.7791,-2.7859,-2.7831,-2.784,-2.7869,-2.7885,-2.789,-2.7901,-2.793,-2.7936,-2.7914,-2.7959,-2.7965,-2.799,-2.7995,-2.7991,-2.7993,-2.8054,-2.8055,-2.8055,-2.8042,0,0,0,0,0,0,-2.7781,-2.779,-2.7798,-2.7831,-2.7841,-2.788,-2.7885,-2.7891,-2.7906,-2.7907,-2.7938,-2.7943,-2.7959,-2.7986,-2.7992,-2.7998,-2.7995,-2.8054,-2.8055,-2.8055,-2.8042,-2.8042,-2.8042,0,0,0,0,0,-2.7777,-2.7792,-2.7798,-2.7806,-2.7852,-2.788,-2.7886,-2.7905,-2.7906,-2.7914,-2.7933,-2.7942,-2.7994,-2.7988,-2.7995,-2.8002,-2.8054,-2.8054,-2.8055,-2.8042,-2.8042,-2.8042,0,0,0,0,0,0,-2.7758,-2.7796,-2.7804,-2.783,-2.7852,-2.7884,-2.7894,-2.7904,-2.7926,-2.7926,-2.7949,-2.7955,-2.7978,-2.7993,-2.7986,-2.8023,-2.8024,-2.8026,-2.8012,-2.8013,-2.8012,-2.8008,-2.7997,0,0,0,0,0,-2.7757,-2.7778,-2.781,-2.7829,-2.784,-2.7865,-2.7878,-2.7891,-2.7915,-2.7924,-2.7944,-2.7966,-2.7987,-2.8001,-2.8022,-2.8045,-2.8052,-2.8053,-2.8053,-2.8053,-2.8055,-2.8068,-2.8069,-2.8058,-2.8058,-2.8058,0,0,-2.7754,-2.7778,-2.7789,-2.7826,-2.7844,-2.7865,-2.7873,-2.7894,-2.7909,-2.7927,-2.7951,-2.7967,-2.7993,-2.8017,-2.8028,-2.803,-2.8059,-2.8054,-2.8054,-2.8055,-2.8069,-2.807,-2.8071,-2.8058,-2.8058,-2.8058,0,0,-2.776,-2.778,-2.7799,-2.7818,-2.7846,-2.7863,-2.7867,-2.7898,-2.791,-2.7935,-2.7949,-2.7967,-2.8003,-2.8021,-2.8035,-2.8048,-2.8057,-2.8055,-2.8054,-2.8067,-2.8068,-2.8069,-2.8073,-2.8075,-2.8056,-2.8056,-2.8056,0,-2.7753,-2.7785,-2.7807,-2.7827,-2.7843,-2.7861,-2.7879,-2.7896,-2.793,-2.7939,-2.7941,-2.7987,-2.8006,-2.8034,-2.8038,-2.8048,-2.8054,-2.8051,-2.8066,-2.8067,-2.8068,-2.8073,-2.8075,-2.8055,-2.8056,-2.8056,-2.8056,0,-2.7775,-2.7797,-2.7809,-2.7842,-2.7858,-2.7878,-2.7901,-2.7916,-2.7927,-2.7944,-2.7969,-2.7993,-2.8019,-2.8027,-2.8038,-2.8057,-2.8057,-2.8062,-2.8064,-2.8069,-2.8073,-2.8075,-2.8055,-2.8055,-2.8055,-2.8055,0,0,-2.777,-2.7815,-2.7819,-2.7834,-2.7867,-2.7884,-2.7904,-2.7931,-2.7943,-2.7965,-2.7982,-2.8013,-2.8018,-2.8034,-2.8047,-2.8059,-2.8068,-2.8062,-2.8063,-2.8063,-2.809,-2.8086,-2.8088,-2.8074,-2.8075,-2.8075,-2.8088,0,-2.778,-2.7818,-2.7838,-2.7867,-2.7887,-2.7905,-2.7922,-2.7944,-2.796,-2.7979,-2.7997,-2.8019,-2.8024,-2.8033,-2.8045,-2.8064,-2.8074,-2.8064,-2.809,-2.8091,-2.8083,-2.809,-2.8086,-2.8097,-2.809,-2.809,-2.8091,0,-2.7797,-2.782,-2.7852,-2.7883,-2.7892,-2.7907,-2.7933,-2.7952,-2.7977,-2.7988,-2.8006,-2.8019,-2.8041,-2.8041,-2.8071,-2.8064,-2.8076,-2.8087,-2.8088,-2.8091,-2.8091,-2.8093,-2.8101,-2.8102,-2.8094,-2.8094,-2.8093,0,-2.779,-2.7829,-2.7853,-2.7865,-2.7902,-2.7913,-2.7928,-2.7953,-2.7968,-2.7991,-2.8001,-2.8025,-2.8039,-2.8057,-2.8077,-2.8076,-2.8105,-2.8107,-2.8114,-2.8114,-2.8119,-2.8118,-2.8129,-2.8127,-2.8127,-2.8127,-2.8127,0,-2.7799,-2.7817,-2.785,-2.7865,-2.7886,-2.7908,-2.7928,-2.7945,-2.7967,-2.7985,-2.8002,-2.8018,-2.8043,-2.8063,-2.8078,-2.81,-2.8106,-2.8116,-2.8119,-2.8114,-2.8113,-2.8122,-2.8121,-2.8128,-2.8128,-2.8128,-2.8128,0,-2.7795,-2.7817,-2.7844,-2.7877,-2.7886,-2.79,-2.7928,-2.7942,-2.796,-2.7982,-2.7988,-2.8015,-2.8039,-2.8061,-2.8092,-2.8103,-2.8125,-2.813,-2.8117,-2.8119,-2.8125,-2.8124,-2.8141,-2.8144,-2.8141,-2.8141,-2.8141,0,-2.7799,-2.7813,-2.7848,-2.7862,-2.7877,-2.7898,-2.7914,-2.7937,-2.7952,-2.7982,-2.7993,-2.8018,-2.8039,-2.8076,-2.8098,-2.8122,-2.8128,-2.8132,-2.8132,-2.8126,-2.8128,-2.8127,-2.8128,-2.8132,-2.8132,-2.8132,-2.8132,0,-2.7804,-2.7814,-2.7836,-2.7862,-2.7881,-2.7902,-2.7924,-2.7934,-2.7961,-2.7977,-2.8002,-2.8018,-2.8051,-2.8075,-2.8102,-2.8118,-2.8129,-2.8132,-2.8135,-2.8129,-2.8121,-2.8125,-2.8116,-2.8131,-2.8131,-2.8131,-2.8131,-2.8131,-2.7804,-2.7817,-2.7844,-2.7868,-2.7887,-2.7907,-2.7923,-2.7942,-2.7964,-2.7992,-2.8004,-2.8029,-2.8054,-2.8092,-2.8107,-2.8127,-2.8129,-2.8134,-2.8135,-2.8135,-2.8134,-2.8118,-2.8132,-2.8132,-2.8132,-2.8132,-2.8132,0,-2.7809,-2.7827,-2.7849,-2.788,-2.7899,-2.7908,-2.7933,-2.7948,-2.797,-2.7993,-2.8014,-2.8042,-2.8066,-2.8091,-2.8116,-2.8127,-2.8133,-2.8133,-2.8132,-2.8136,-2.8131,-2.8125,-2.8128,-2.8128,-2.8128,-2.8128,-2.8128,-2.8128,-2.7814,-2.7838,-2.7852,-2.7886,-2.7904,-2.7929,-2.7942,-2.7961,-2.7979,-2.801,-2.8031,-2.8047,-2.807,-2.8097,-2.812,-2.8127,-2.8135,-2.8134,-2.8141,-2.8136,-2.8136,-2.8136,-2.8132,-2.8135,-2.8135,-2.8145,-2.8145,-2.8145]},{"header":{"parameterUnit":"m.s-1","parameterCategory":1,"la1":30.2991,"la2":30.254,"lo1":-89.0895,"lo2":-89.0444,"dy":0.0017,"dx":0.0017,"nx":28,"ny":28,"refTime":"2025-12-19T09:00:00:Z","depth":0,"parameterNumber":3,"parameterNumberName":"V-component_of_WINDS"},"data":[0,0,0,0,0,0,0,0,0,0,0,0,0,0,0,0,0,0,0,0,0,0,0,0,0,0,0,0,0,0,0,0,0,0,0,0,0,0,0,0,0,0,0,0,0,0,0,0,0,0,0,0,0,0,0,0,0,0,2.8382,2.8383,0,2.8448,2.8449,2.845,2.8518,2.8519,2.852,2.852,2.8588,2.8589,2.859,0,0,0,0,0,0,0,0,0,0,0,0,0,2.8318,2.8318,2.8382,2.8383,2.8384,2.8448,2.8449,2.845,2.8518,2.8519,2.852,2.8521,2.8588,2.8589,2.859,0,0,0,0,0,0,0,0,0,0,0,0,0,2.8361,2.8319,2.8382,2.8425,2.843,2.8448,2.8449,2.845,2.8517,2.8519,2.852,2.8521,2.8587,2.8589,2.859,2.8571,0,0,2.8594,2.8595,0,0,0,0,0,0,0,0,2.8358,2.8363,2.8418,2.8422,2.8427,2.8476,2.8451,2.8491,2.8517,2.8484,2.852,2.8522,2.855,2.8554,2.8564,2.8574,2.8577,2.8594,2.8595,2.8596,2.8596,0,0,0,0,0,0,0,2.8355,2.8361,2.8408,2.8419,2.8425,2.8443,2.845,2.8459,2.8508,2.8487,2.8492,2.8499,2.8553,2.8562,2.8566,2.8578,2.8594,2.8596,2.8597,2.8597,2.8583,2.8581,0,0,0,0,0,0,2.8345,2.8358,2.8406,2.841,2.8396,2.8443,2.8451,2.8459,2.8508,2.8517,2.8498,2.8502,2.8559,2.8564,2.8568,2.8553,2.8596,2.8597,2.8598,2.8584,2.8582,2.8581,0,0,0,0,0,0,2.8344,2.8349,2.8404,2.8386,2.8394,2.8442,2.8451,2.846,2.8469,2.8517,2.8526,2.8498,2.856,2.8566,2.8571,2.8556,2.8598,2.8599,2.8585,2.8583,2.8582,2.852,0,0,0,0,0,0,2.8342,2.8348,2.834,2.8385,2.8395,2.8404,2.845,2.846,2.8472,2.8478,2.852,2.8528,2.8562,2.8569,2.8573,2.8559,2.86,2.8587,2.8584,2.8582,2.8524,2.8517,2.851,0,0,0,0,0,2.8339,2.8319,2.8339,2.8345,2.8385,2.8403,2.8409,2.8448,2.847,2.8464,2.8495,2.8526,2.8557,2.8569,2.8574,2.856,2.8588,2.8585,2.8582,2.8527,2.8518,2.851,0,0,0,0,0,0,2.827,2.8325,2.8349,2.8342,2.8367,2.8414,2.8407,2.8437,2.8456,2.8461,2.851,2.8519,2.8519,2.854,2.8552,2.8548,2.8577,2.8575,2.8534,2.8525,2.8519,2.8514,2.8601,0,0,0,0,0,2.8254,2.8263,2.8311,2.8301,2.8312,2.8357,2.8366,2.8395,2.8423,2.8434,2.8466,2.8492,2.8509,2.8518,2.8535,2.8527,2.854,2.8521,2.8514,2.8509,2.8507,2.8509,2.8503,2.8572,2.8572,2.8572,0,0,2.822,2.8252,2.8254,2.8288,2.8311,2.8321,2.8366,2.8373,2.8382,2.8435,2.8443,2.8467,2.85,2.85,2.8502,2.8518,2.8491,2.8505,2.85,2.8501,2.8506,2.8499,2.8493,2.857,2.857,2.8571,0,0,2.8166,2.8189,2.8185,2.8209,2.8244,2.8275,2.8274,2.8318,2.8336,2.8345,2.8387,2.8398,2.8424,2.8448,2.8463,2.8423,2.8454,2.8427,2.8392,2.8393,2.8388,2.8384,2.8373,2.8368,2.8425,2.8424,2.8424,0,2.812,2.8136,2.8179,2.8186,2.8201,2.8252,2.8251,2.8271,2.8309,2.832,2.8337,2.8375,2.84,2.8408,2.8399,2.8408,2.8412,2.8422,2.8385,2.8381,2.8378,2.8368,2.8363,2.8421,2.8422,2.8422,2.8422,0,2.808,2.8091,2.8084,2.8122,2.8137,2.8138,2.8184,2.8194,2.8223,2.8253,2.8263,2.8297,2.8324,2.8328,2.8354,2.8341,2.8351,2.8376,2.8407,2.8367,2.8359,2.8355,2.8416,2.8418,2.8419,2.8419,0,0,2.7981,2.8047,2.8044,2.8064,2.8109,2.8119,2.8125,2.8153,2.8162,2.8187,2.8196,2.8219,2.8245,2.8262,2.8293,2.8294,2.8265,2.832,2.8322,2.8311,2.8258,2.824,2.8234,2.8286,2.8286,2.8285,2.8256,0,2.7936,2.795,2.7992,2.7994,2.8007,2.8058,2.8064,2.8093,2.8122,2.8139,2.8171,2.8188,2.8218,2.823,2.8234,2.8268,2.8256,2.827,2.8297,2.8297,2.8289,2.8229,2.8209,2.818,2.8253,2.8252,2.8252,0,2.7885,2.791,2.7914,2.7963,2.797,2.7974,2.8006,2.802,2.8056,2.8077,2.8099,2.8134,2.8147,2.8175,2.8195,2.8204,2.8218,2.8237,2.8237,2.8242,2.8273,2.8235,2.8171,2.8167,2.8246,2.8247,2.8247,0,2.7816,2.7851,2.7859,2.7874,2.7931,2.7934,2.7957,2.7994,2.801,2.8038,2.8049,2.8077,2.8093,2.8116,2.8159,2.8175,2.8175,2.8206,2.8195,2.8194,2.8193,2.8193,2.8133,2.8198,2.8199,2.8199,2.8199,0,2.7763,2.7764,2.783,2.7835,2.7839,2.7888,2.7892,2.792,2.7954,2.7967,2.8012,2.8024,2.808,2.8099,2.8132,2.8146,2.8152,2.8171,2.8181,2.8168,2.8166,2.8179,2.8183,2.8198,2.8198,2.8198,2.8198,0,2.7687,2.7731,2.7744,2.7797,2.7811,2.7812,2.7859,2.7867,2.7901,2.7917,2.7924,2.7976,2.8001,2.8047,2.8084,2.8107,2.8115,2.8129,2.8103,2.8109,2.8097,2.8098,2.8044,2.8041,2.8106,2.8105,2.8104,0,2.765,2.7653,2.7708,2.7721,2.7744,2.7762,2.778,2.783,2.7846,2.789,2.7894,2.7923,2.7949,2.7987,2.8029,2.8059,2.8077,2.8056,2.8081,2.8071,2.808,2.808,2.8083,2.805,2.8049,2.8048,2.8047,0,2.7583,2.7606,2.7628,2.766,2.768,2.7707,2.7737,2.7745,2.7802,2.7819,2.7846,2.7866,2.7907,2.7936,2.7973,2.8,2.8034,2.8039,2.8039,2.8027,2.8013,2.8024,2.8089,2.804,2.8041,2.8042,2.8042,2.8042,2.7528,2.7534,2.7575,2.7601,2.7629,2.7657,2.7669,2.7705,2.7728,2.7766,2.7794,2.782,2.7861,2.7914,2.7939,2.7962,2.7977,2.7976,2.7976,2.7975,2.7972,2.8008,2.7968,2.7968,2.7969,2.7969,2.7969,0,2.7465,2.7495,2.7518,2.756,2.7581,2.7612,2.7648,2.7664,2.7686,2.7721,2.7747,2.7781,2.7811,2.7857,2.7891,2.79,2.7918,2.7908,2.7909,2.7915,2.7954,2.7953,2.7894,2.7894,2.7894,2.7894,2.7894,2.7894,2.7435,2.7449,2.7478,2.7508,2.7538,2.7564,2.7583,2.761,2.7639,2.7674,2.77,2.773,2.7771,2.781,2.784,2.7853,2.7865,2.785,2.7869,2.7905,2.7912,2.7918,2.7917,2.7852,2.7852,2.7828,2.7828,2.7828]}]]